New Castle, PA

3:37 AM EDT on July 24, 2016 (GMT -0400)
New Castle Municipal

Weather History for KUCP - December, 2013

Change the Weather History Date:

Sunday, December 29, 2013

  Actual Average Record
Temperature  
Mean Temperature 38 °F -  
Max Temperature 41 °F 37 °F 66 °F (1984)
Min Temperature 34 °F 21 °F -3 °F (1933)
Degree Days  
Heating Degree Days 27    
Moisture  
Dew Point 34 °F    
Average Humidity 86    
Maximum Humidity 100    
Minimum Humidity 49    
Precipitation  
Precipitation 0.10 in - - ()
Sea Level Pressure  
Sea Level Pressure 29.82 in    
Wind  
Wind Speed 2 mph (WSW)    
Max Wind Speed 18 mph    
Max Gust Speed 26 mph    
Visibility 6 miles    
Events Rain    
Averages and records for this station are not official NWS values.
T = Trace of Precipitation, MM = Missing Value Source: NWS Daily Summary

Daily Weather History Graph

Daily Weather History Graph

Search for Another Location

Airport or City:

Trip Planner

Search our weather history database for the weather conditions in past years. The results will help you decide how hot, cold, wet, or windy it might be!

Date:

Astronomy

Dec. 29, 2013 Rise Set
Actual Time 7:46 AM EST 5:01 PM EST
Civil Twilight 7:15 AM EST 5:32 PM EST
Nautical Twilight 6:40 AM EST 6:07 PM EST
Astronomical Twilight 6:07 AM EST 6:40 PM EST
Moon 4:27 AM EST (12/29) 2:39 PM EST (12/29)
Length of Visible Light 10h 17m
Length of Day
9h 15m
Waning Crescent, 11% of the Moon is Illuminated
Dec 29
Waning Crescent
Jan 1
New
Jan 7
First Quarter
Jan 15
Full
Jan 24
Last Quarter

Hourly Weather History & Observations

Time (EST) Temp. Windchill Dew Point Humidity Pressure Visibility Wind Dir Wind Speed Gust Speed Precip Events Conditions
12:56 AM 39.9 °F - 25.2 °F 56% 30.07 in 10.0 mi Calm Calm - N/A   Clear
1:56 AM 39.9 °F - 25.2 °F 56% 30.07 in 10.0 mi Calm Calm - N/A   Clear
2:56 AM 39.9 °F 35.8 °F 24.1 °F 53% 30.06 in 10.0 mi Variable 5.8 mph - N/A   Clear
3:56 AM 41.0 °F - 23.0 °F 49% 30.01 in 10.0 mi Calm Calm - N/A   Clear
4:56 AM 39.9 °F - 23.0 °F 51% 30.00 in 10.0 mi Calm Calm - N/A   Clear
5:56 AM 41.0 °F - 23.0 °F 49% 29.98 in 10.0 mi Calm Calm - N/A   Clear
6:56 AM 39.9 °F - 23.0 °F 51% 29.95 in 10.0 mi Calm Calm - N/A   Clear
7:56 AM 39.9 °F - 24.1 °F 53% 29.95 in 10.0 mi Calm Calm - N/A   Clear
8:56 AM 37.9 °F - 29.1 °F 71% 29.94 in 8.0 mi Calm Calm - 0.00 in Rain Light Rain
9:03 AM 37.4 °F - 30.2 °F 75% 29.87 in 9.0 mi Calm Calm - 0.00 in Rain Light Rain
9:20 AM 37.4 °F - 32.0 °F 81% 29.86 in 10.0 mi Calm Calm - 0.00 in Rain Light Rain
9:29 AM 37.4 °F - 32.0 °F 81% 29.86 in 10.0 mi Calm Calm - 0.00 in Rain Light Rain
9:56 AM 36.9 °F - 32.9 °F 86% 29.90 in 10.0 mi Calm Calm - 0.00 in Rain Light Rain
10:56 AM 36.9 °F - 34.9 °F 93% 29.86 in 4.0 mi Calm Calm - 0.02 in Rain Light Rain
11:11 AM 37.4 °F - 33.8 °F 87% 29.78 in 5.0 mi Calm Calm - 0.00 in Rain Light Rain
11:34 AM 37.4 °F - 35.6 °F 93% 29.76 in 3.0 mi Calm Calm - 0.01 in Rain Light Rain
11:56 AM 37.9 °F - 36.0 °F 93% 29.81 in 4.0 mi Calm Calm - 0.02 in Rain Light Rain
12:32 PM 37.4 °F - 37.4 °F 100% 29.72 in 2.5 mi Calm Calm - 0.03 in Rain Light Rain
12:39 PM 37.4 °F - 37.4 °F 100% 29.72 in 1.8 mi Calm Calm - 0.03 in Rain Light Rain
12:56 PM 37.4 °F - 37.4 °F 100% 29.71 in 1.8 mi Calm Calm - N/A Rain Light Rain
1:20 PM 37.4 °F - 37.4 °F 100% 29.72 in 1.0 mi Calm Calm - 0.02 in Rain Light Rain
1:27 PM 37.4 °F - 37.4 °F 100% 29.72 in 0.8 mi Calm Calm - 0.03 in Rain Light Rain
1:34 PM 37.4 °F 33.8 °F 37.4 °F 100% 29.73 in 1.2 mi WNW 4.6 mph - 0.03 in Rain Light Rain
1:40 PM 37.4 °F 33.8 °F 37.4 °F 100% 29.72 in 2.0 mi WNW 4.6 mph - 0.04 in Rain Light Rain
1:56 PM 37.9 °F - 37.9 °F 100% 29.78 in 2.5 mi Calm Calm - 0.05 in Rain Light Rain
2:15 PM 37.4 °F - 37.4 °F 100% 29.71 in 4.0 mi Calm Calm - 0.01 in Rain Light Rain
2:56 PM 38.8 °F 36.5 °F 37.9 °F 97% 29.78 in 5.0 mi West 3.5 mph - 0.01 in Rain Light Rain
3:23 PM 39.2 °F - 37.4 °F 93% 29.71 in 5.0 mi Calm Calm - 0.01 in   Mostly Cloudy
3:34 PM 39.2 °F - 39.2 °F 100% 29.71 in 3.0 mi Calm Calm - 0.01 in   Mostly Cloudy
3:56 PM 39.2 °F 35.9 °F 37.4 °F 93% 29.72 in 4.0 mi WSW 4.6 mph - N/A   Overcast
4:23 PM 39.2 °F - 39.2 °F 100% 29.72 in 2.5 mi Calm Calm - N/A   Overcast
4:32 PM 39.2 °F - 39.2 °F 100% 29.72 in 6.0 mi Calm Calm - N/A   Overcast
4:42 PM 39.2 °F - 39.2 °F 100% 29.73 in 8.0 mi Calm Calm - N/A   Overcast
4:56 PM 39.9 °F - 38.8 °F 96% 29.79 in 7.0 mi Calm Calm - N/A   Overcast
5:56 PM 39.9 °F 35.1 °F 38.8 °F 96% 29.80 in 6.0 mi SW 6.9 mph - 0.00 in   Overcast
6:32 PM 39.2 °F 34.2 °F 39.2 °F 100% 29.74 in 2.0 mi SW 6.9 mph - 0.00 in   Overcast
6:37 PM 39.2 °F 33.6 °F 39.2 °F 100% 29.74 in 3.0 mi SW 8.1 mph - 0.00 in   Overcast
6:46 PM 39.2 °F 35.0 °F 39.2 °F 100% 29.75 in 6.0 mi WSW 5.8 mph - 0.00 in   Overcast
6:56 PM 39.2 °F 35.9 °F 39.2 °F 100% 29.75 in 10.0 mi West 4.6 mph - N/A   Overcast
7:15 PM 39.2 °F 32.0 °F 37.4 °F 93% 29.77 in 10.0 mi West 11.5 mph - N/A   Mostly Cloudy
7:56 PM 39.9 °F 32.5 °F 34.9 °F 82% 29.86 in 10.0 mi West 12.7 mph 26.5 mph N/A   Overcast
8:56 PM 38.8 °F 32.1 °F 34.9 °F 86% 29.87 in 10.0 mi WSW 10.4 mph - N/A   Overcast
9:13 PM 39.2 °F 32.5 °F 35.6 °F 87% 29.80 in 10.0 mi WSW 10.4 mph - N/A   Overcast
9:28 PM 39.2 °F 32.5 °F 35.6 °F 87% 29.80 in 10.0 mi WSW 10.4 mph - N/A   Overcast
9:56 PM 38.8 °F 32.1 °F 34.9 °F 86% 29.88 in 6.0 mi WSW 10.4 mph - N/A   Overcast
10:56 PM 36.9 °F 26.8 °F 34.9 °F 93% 29.88 in 4.0 mi West 18.4 mph 24.2 mph 0.00 in Rain Light Rain
11:08 PM 37.4 °F 28.9 °F 33.8 °F 87% 29.82 in 6.0 mi West 13.8 mph 19.6 mph 0.00 in   Overcast
11:18 PM 37.4 °F 30.3 °F 33.8 °F 87% 29.83 in 8.0 mi WSW 10.4 mph - 0.00 in Rain Light Rain
11:44 PM 35.6 °F 28.0 °F 32.0 °F 87% 29.84 in 10.0 mi WNW 10.4 mph 19.6 mph 0.00 in   Overcast
11:56 PM 34.9 °F 28.3 °F 32.0 °F 89% 29.92 in 10.0 mi West 8.1 mph - 0.00 in   Overcast